Location: Newark
(25.6108°S, 54.5803°W)
Time: 08:55:07
(UTC+00:00)

Tiros 1 - Pass Details

Date: 03 November 2020
Orbit: 630 x 664 km, 48.4° (Epoch: 29 November)

Event Time Altitude Azimuth Distance (km) Brightness Sun altitude
Rises 13:35:39 0° 1° (N) 2,926 10.6 63.1°
Reaches altitude 10° 13:39:21 10° 31° (NNE) 2,035 10.2 63.9°
Maximum altitude 13:41:13 12° 54° (NE) 1,899 10.2 64.3°
Drops below altitude 10° 13:43:05 10° 78° (ENE) 2,054 10.3 64.7°
Sets 13:46:51 0° 107° (ESE) 2,983 10.8 65.5°
